User: anonymous   Login
Location: Unspecified
(0.0000°N, 0.0000°E)
Time: 15:53:04
(UTC+02:00)
Language:

ARIANE 5 R/B - Orbit

View from above orbital plane
View from above orbital plane
View from above satellite
View from above satellite

Ground track
Ground track

The orbit data is extracted from the following two-line orbital elements,

1 29646U 06054D   15215.38908703  .00004477  00000-0  10515-2 0  9990
2 29646 002.7823 285.5965 7133782 042.4196 007.6350 02.47109510 74649
Epoch (UTC): 03 August 2015 09:20:17
Eccentricity: 0.7133782
inclination: 2.7823°
perigee height: 246 km
apogee height: 33218 km
right ascension of ascending node: 285.5965°
argument of perigee: 42.4196°
revolutions per day: 2.47109510
mean anomaly at epoch: 7.6350°
orbit number at epoch: 7464

The dashed part of the orbit path shows where the satellite is in the earth's shadow,  

DLR